timestamp,surface_pressure_avg,surface_temp_avg,battery_voltage,lat,long
2023-06-17 00:09:00+00:00,346.0812,6.9,12.81,47.84626,-54.09684
2023-06-17 00:19:00+00:00,345.8379,6.8,12.73,47.84626,-54.09684
2023-06-17 00:29:00+00:00,342.0197,6.7,12.73,47.84626,-54.09684
2023-06-17 00:39:00+00:00,337.6696,6.7,12.73,47.84626,-54.09684
2023-06-17 00:49:00+00:00,333.3446,6.52,12.73,47.84626,-54.09684
2023-06-17 00:59:00+00:00,329.4979,6.6,12.73,47.84626,-54.09684
2023-06-17 01:09:00+00:00,320.2696,6.5,12.73,47.84626,-54.09684
2023-06-17 01:19:00+00:00,313.443,6.4,12.65,47.84626,-54.09684
2023-06-17 01:29:00+00:00,305.9331,6.31,12.65,47.84626,-54.09684
2023-06-17 01:39:00+00:00,296.4497,6.51,12.65,47.84626,-54.09684
2023-06-17 01:49:00+00:00,290.8414,6.64,12.65,47.84626,-54.09684
2023-06-17 01:59:00+00:00,285.0031,6.78,12.65,47.84626,-54.09684
2023-06-17 02:09:00+00:00,273.048,6.81,12.65,47.84626,-54.09684
2023-06-17 02:19:00+00:00,263.5598,6.9,12.65,47.84626,-54.09684
2023-06-17 02:29:00+00:00,259.3331,6.9,12.65,47.84626,-54.09684
2023-06-17 02:39:00+00:00,248.0564,6.91,12.65,47.84626,-54.09684
2023-06-17 02:49:00+00:00,233.3781,7.22,12.65,47.84626,-54.09684
2023-06-17 02:59:00+00:00,230.0547,6.87,12.65,47.84626,-54.09684
2023-06-17 03:09:00+00:00,230.0214,6.2,12.65,47.84626,-54.09684
2023-06-17 03:19:00+00:00,217.8131,6.88,12.65,47.84626,-54.09684
2023-06-17 03:29:00+00:00,209.3715,6.98,12.65,47.84626,-54.09684
2023-06-17 03:39:00+00:00,212.2381,5.9,12.65,47.84626,-54.09684
2023-06-17 03:49:00+00:00,209.8798,5.55,12.65,47.84626,-54.09684
2023-06-17 03:59:00+00:00,202.6214,6.33,12.65,47.84626,-54.09684
2023-06-17 04:09:00+00:00,200.8282,6.5,12.65,47.84626,-54.09684
2023-06-17 04:19:00+00:00,200.5214,5.65,12.57,47.84626,-54.09684
2023-06-17 04:29:00+00:00,196.4098,6.08,12.57,47.84626,-54.09684
2023-06-17 04:39:00+00:00,196.7815,6.49,12.57,47.84626,-54.09684
2023-06-17 04:49:00+00:00,197.8548,6.3,12.57,47.84626,-54.09684
2023-06-17 04:59:00+00:00,194.0315,6.2,12.57,47.84626,-54.09684
2023-06-17 05:09:00+00:00,194.2765,6.2,12.57,47.84626,-54.09684
2023-06-17 05:19:00+00:00,200.6815,5.9,12.57,47.84626,-54.09684
2023-06-17 05:29:00+00:00,199.7281,5.94,12.57,47.84626,-54.09684
2023-06-17 05:39:00+00:00,195.9014,5.77,12.57,47.84626,-54.09684
2023-06-17 05:49:00+00:00,198.6232,5.81,12.57,47.84626,-54.09684
2023-06-17 05:59:00+00:00,206.4498,6.05,12.57,47.84626,-54.09684
2023-06-17 06:09:00+00:00,208.4215,6.07,12.57,47.84626,-54.09684
2023-06-17 06:19:00+00:00,208.7748,6.32,12.57,47.84626,-54.09684
2023-06-17 06:29:00+00:00,214.2114,6.3,12.57,47.84626,-54.09684
2023-06-17 06:39:00+00:00,218.1647,5.9,12.57,47.84626,-54.09684
2023-06-17 06:49:00+00:00,215.6231,6.16,12.57,47.84626,-54.09684
2023-06-17 06:59:00+00:00,217.9081,6.1,12.57,47.84626,-54.09684
2023-06-17 07:09:00+00:00,225.0031,5.48,12.57,47.84626,-54.09684
2023-06-17 07:19:00+00:00,230.6414,5.08,12.57,47.84626,-54.09684
2023-06-17 07:29:00+00:00,232.6048,5.05,12.57,47.84626,-54.09684
2023-06-17 07:39:00+00:00,239.7415,5.1,12.57,47.84626,-54.09684
2023-06-17 07:49:00+00:00,244.8731,4.9,12.57,47.84626,-54.09684
2023-06-17 07:59:00+00:00,248.9781,4.97,12.57,47.84626,-54.09684
2023-06-17 08:09:00+00:00,254.6414,5.04,12.57,47.84626,-54.09684
2023-06-17 08:19:00+00:00,260.6747,5.19,12.57,47.84626,-54.09684
2023-06-17 08:29:00+00:00,262.0931,5.24,12.57,47.84626,-54.09684
2023-06-17 08:39:00+00:00,267.5247,5.28,12.57,47.84626,-54.09684
2023-06-17 08:49:00+00:00,274.198,5.13,12.57,47.84626,-54.09684
2023-06-17 08:59:00+00:00,277.9348,5.2,12.57,47.84626,-54.09684
2023-06-17 09:09:00+00:00,279.228,5.2,12.57,47.84626,-54.09684
2023-06-17 09:19:00+00:00,289.3497,5.0,12.57,47.84626,-54.09684
2023-06-17 09:29:00+00:00,299.7596,4.89,12.57,47.84626,-54.09684
2023-06-17 09:39:00+00:00,305.4914,4.87,12.57,47.84626,-54.09684
2023-06-17 09:49:00+00:00,307.973,4.8,12.57,47.84626,-54.09684
2023-06-17 09:59:00+00:00,315.5797,4.7,12.57,47.84626,-54.09684
2023-06-17 10:09:00+00:00,319.848,4.7,12.57,47.84626,-54.09684
2023-06-17 10:19:00+00:00,319.0714,4.7,12.65,47.84626,-54.09684
2023-06-17 10:29:00+00:00,321.433,4.7,12.65,47.84626,-54.09684
2023-06-17 10:39:00+00:00,326.5263,4.7,12.65,47.84626,-54.09684
2023-06-17 10:49:00+00:00,324.3397,4.7,12.65,47.84626,-54.09684
2023-06-17 10:59:00+00:00,320.7463,4.7,12.65,47.84626,-54.09684
2023-06-17 11:09:00+00:00,327.0779,4.7,12.65,47.84626,-54.09684
2023-06-17 11:19:00+00:00,328.36300000000006,4.7,12.81,47.84626,-54.09684
2023-06-17 11:29:00+00:00,325.228,4.7,12.81,47.84626,-54.09684
2023-06-17 11:39:00+00:00,326.0596,4.7,12.81,47.84626,-54.09684
2023-06-17 11:49:00+00:00,329.0363,4.7,12.81,47.84626,-54.09684
2023-06-17 11:59:00+00:00,322.6913,4.7,12.81,47.84626,-54.09684
2023-06-17 12:09:00+00:00,319.2513,4.7,12.81,47.84626,-54.09684
2023-06-17 12:19:00+00:00,320.4797,4.7,13.21,47.84626,-54.09684
2023-06-17 12:29:00+00:00,316.2947,4.7,13.21,47.84626,-54.09684
2023-06-17 12:39:00+00:00,306.488,4.7,13.21,47.84626,-54.09684
2023-06-17 12:49:00+00:00,305.1848,4.7,13.21,47.84626,-54.09684
2023-06-17 12:59:00+00:00,305.353,4.7,13.21,47.84626,-54.09684
2023-06-17 13:09:00+00:00,299.323,4.7,13.21,47.84626,-54.09684
2023-06-17 13:19:00+00:00,289.3914,4.7,13.44,47.84626,-54.09684
2023-06-17 13:29:00+00:00,288.563,4.7,13.44,47.84626,-54.09684
2023-06-17 13:39:00+00:00,284.0731,4.7,13.44,47.84626,-54.09684
2023-06-17 13:49:00+00:00,273.0197,4.8,13.44,47.84626,-54.09684
2023-06-17 13:59:00+00:00,265.9965,4.98,13.44,47.84626,-54.09684
2023-06-17 14:09:00+00:00,265.0481,5.0,13.44,47.84626,-54.09684
2023-06-17 14:19:00+00:00,254.2181,5.1,13.6,47.84626,-54.09684
2023-06-17 14:29:00+00:00,242.3947,5.19,13.6,47.84626,-54.09684
2023-06-17 14:39:00+00:00,239.6448,5.1,13.6,47.84626,-54.09684
2023-06-17 14:49:00+00:00,235.1214,5.15,13.6,47.84626,-54.09684
2023-06-17 14:59:00+00:00,226.3781,5.21,13.6,47.84626,-54.09684
2023-06-17 15:09:00+00:00,219.6398,5.3,13.6,47.84626,-54.09684
2023-06-17 15:19:00+00:00,217.9647,5.32,13.84,47.84626,-54.09684
2023-06-17 15:29:00+00:00,215.8515,5.46,13.84,47.84626,-54.09684
2023-06-17 15:39:00+00:00,209.0831,5.52,13.84,47.84626,-54.09684
2023-06-17 15:49:00+00:00,201.9848,5.5,13.84,47.84626,-54.09684
2023-06-17 15:59:00+00:00,199.7681,5.5,13.84,47.84626,-54.09684
2023-06-17 16:09:00+00:00,196.5448,5.6,13.84,47.84626,-54.09684
2023-06-17 16:19:00+00:00,190.0164,5.5,13.84,47.84626,-54.09684
2023-06-17 16:29:00+00:00,188.5098,5.51,13.84,47.84626,-54.09684
2023-06-17 16:39:00+00:00,193.6831,5.6,13.84,47.84626,-54.09684
2023-06-17 16:49:00+00:00,193.7081,5.6,13.84,47.84626,-54.09684
2023-06-17 16:59:00+00:00,193.2714,5.6,13.84,47.84626,-54.09684
2023-06-17 17:09:00+00:00,194.1481,5.6,13.84,47.84626,-54.09684
2023-06-17 17:19:00+00:00,194.2348,5.67,13.76,47.84626,-54.09684
2023-06-17 17:29:00+00:00,196.5398,5.7,13.76,47.84626,-54.09684
2023-06-17 17:39:00+00:00,201.2848,5.68,13.76,47.84626,-54.09684
2023-06-17 17:49:00+00:00,201.1381,5.69,13.76,47.84626,-54.09684
2023-06-17 17:59:00+00:00,201.7315,5.7,13.76,47.84626,-54.09684
2023-06-17 18:09:00+00:00,209.5482,5.7,13.76,47.84626,-54.09684
2023-06-17 18:19:00+00:00,213.1998,5.7,13.6,47.84626,-54.09684
2023-06-17 18:29:00+00:00,213.9448,5.8,13.6,47.84626,-54.09684
2023-06-17 18:39:00+00:00,219.2898,5.8,13.6,47.84626,-54.09684
2023-06-17 18:49:00+00:00,228.513,5.8,13.6,47.84626,-54.09684
2023-06-17 18:59:00+00:00,236.0564,5.8,13.6,47.84626,-54.09684
2023-06-17 19:09:00+00:00,240.0231,5.9,13.6,47.84626,-54.09684
2023-06-17 19:19:00+00:00,242.4947,5.98,13.44,47.84626,-54.09684
2023-06-17 19:29:00+00:00,246.0781,6.0,13.44,47.84626,-54.09684
2023-06-17 19:39:00+00:00,250.1464,6.0,13.44,47.84626,-54.09684
2023-06-17 19:49:00+00:00,249.4531,6.0,13.44,47.84626,-54.09684
2023-06-17 19:59:00+00:00,250.128,5.95,13.44,47.84626,-54.09684
2023-06-17 20:09:00+00:00,258.4131,5.9,13.44,47.84626,-54.09684
2023-06-17 20:19:00+00:00,266.6764,5.8,13.37,47.84626,-54.09684
2023-06-17 20:29:00+00:00,270.3097,5.4,13.37,47.84626,-54.09684
2023-06-17 20:39:00+00:00,273.8581,5.35,13.37,47.84626,-54.09684
2023-06-17 20:49:00+00:00,284.7014,5.4,13.37,47.84626,-54.09684
2023-06-17 20:59:00+00:00,296.4797,5.4,13.37,47.84626,-54.09684
2023-06-17 21:09:00+00:00,302.6463,5.33,13.37,47.84626,-54.09684
2023-06-17 21:19:00+00:00,305.813,5.6,13.29,47.84626,-54.09684
2023-06-17 21:29:00+00:00,312.6847,5.8,13.29,47.84626,-54.09684
2023-06-17 21:39:00+00:00,320.113,5.8,13.29,47.84626,-54.09684
2023-06-17 21:49:00+00:00,325.193,5.81,13.29,47.84626,-54.09684
2023-06-17 21:59:00+00:00,328.1413,6.0,13.29,47.84626,-54.09684
2023-06-17 22:09:00+00:00,334.2581,5.9,13.29,47.84626,-54.09684
2023-06-17 22:19:00+00:00,342.74300000000005,5.6,13.13,47.84626,-54.09684
2023-06-17 22:29:00+00:00,350.6196,5.5,13.13,47.84626,-54.09684
2023-06-17 22:39:00+00:00,353.908,5.58,13.13,47.84626,-54.09684
2023-06-17 22:49:00+00:00,355.3864,5.6,13.13,47.84626,-54.09684
2023-06-17 22:59:00+00:00,356.8079,5.6,13.13,47.84626,-54.09684
2023-06-17 23:09:00+00:00,357.7062,5.5,13.13,47.84626,-54.09684
2023-06-17 23:19:00+00:00,362.088,5.3,12.89,47.84626,-54.09684
2023-06-17 23:29:00+00:00,364.0428,5.2,12.89,47.84626,-54.09684
2023-06-17 23:39:00+00:00,360.8496,5.2,12.89,47.84626,-54.09684
2023-06-17 23:49:00+00:00,365.4213,5.27,12.89,47.84626,-54.09684
2023-06-17 23:59:00+00:00,367.0596,5.3,12.89,47.84626,-54.09684
